Year,Month,Day,Hour,Minute,Value (Times are PST for windspeed in km/hr)
2009,03,06,00,00,0.50
2009,03,06,00,01,2.00
2009,03,06,00,02,2.70
2009,03,06,00,03,1.10
2009,03,06,00,04,1.50
2009,03,06,00,05,0.60
2009,03,06,00,06,0.60
2009,03,06,00,07,0.00
2009,03,06,00,08,0.10
2009,03,06,00,09,0.20
2009,03,06,00,10,0.90
2009,03,06,00,11,0.00
2009,03,06,00,12,1.30
2009,03,06,00,13,1.00
2009,03,06,00,14,1.60
2009,03,06,00,15,2.90
2009,03,06,00,16,1.10
2009,03,06,00,17,1.40
2009,03,06,00,18,1.40
2009,03,06,00,19,0.10
2009,03,06,00,20,0.40
2009,03,06,00,21,0.00
2009,03,06,00,22,0.00
2009,03,06,00,23,0.30
2009,03,06,00,24,2.30
2009,03,06,00,25,0.90
2009,03,06,00,26,1.20
2009,03,06,00,27,1.50
2009,03,06,00,28,2.30
2009,03,06,00,29,1.40
2009,03,06,00,30,2.20
2009,03,06,00,31,1.30
2009,03,06,00,32,0.30
2009,03,06,00,33,1.50
2009,03,06,00,34,0.80
2009,03,06,00,35,0.20
2009,03,06,00,36,0.80
2009,03,06,00,37,0.70
2009,03,06,00,38,1.40
2009,03,06,00,39,1.90
2009,03,06,00,40,1.40
2009,03,06,00,41,1.80
2009,03,06,00,42,0.50
2009,03,06,00,43,1.20
2009,03,06,00,44,1.40
2009,03,06,00,45,0.10
2009,03,06,00,46,3.00
2009,03,06,00,47,0.80
2009,03,06,00,48,1.00
2009,03,06,00,49,0.30
2009,03,06,00,50,1.40
2009,03,06,00,51,0.60
2009,03,06,00,52,1.90
2009,03,06,00,53,1.20
2009,03,06,00,54,2.90
2009,03,06,00,55,0.80
2009,03,06,00,56,2.40
2009,03,06,00,57,1.00
2009,03,06,00,58,3.10
2009,03,06,00,59,3.70
2009,03,06,01,00,0.60
2009,03,06,01,01,0.20
2009,03,06,01,02,1.60
2009,03,06,01,03,0.60
2009,03,06,01,04,1.40
2009,03,06,01,05,0.60
2009,03,06,01,06,0.30
2009,03,06,01,07,2.60
2009,03,06,01,08,1.50
2009,03,06,01,09,0.20
2009,03,06,01,10,0.00
2009,03,06,01,11,2.30
2009,03,06,01,12,0.80
2009,03,06,01,13,1.50
2009,03,06,01,14,2.40
2009,03,06,01,15,3.40
2009,03,06,01,16,0.70
2009,03,06,01,17,3.30
2009,03,06,01,18,2.70
2009,03,06,01,19,2.50
2009,03,06,01,20,3.10
2009,03,06,01,21,3.00
2009,03,06,01,22,3.00
2009,03,06,01,23,0.20
2009,03,06,01,24,0.90
2009,03,06,01,25,3.60
2009,03,06,01,26,3.50
2009,03,06,01,27,1.00
2009,03,06,01,28,0.60
2009,03,06,01,29,2.40
2009,03,06,01,30,1.40
2009,03,06,01,31,1.90
2009,03,06,01,32,1.10
2009,03,06,01,33,2.60
2009,03,06,01,34,2.80
2009,03,06,01,35,1.10
2009,03,06,01,36,1.50
2009,03,06,01,37,1.90
2009,03,06,01,38,1.70
2009,03,06,01,39,1.00
2009,03,06,01,40,1.30
2009,03,06,01,41,1.90
2009,03,06,01,42,2.00
2009,03,06,01,43,1.10
2009,03,06,01,44,1.90
2009,03,06,01,45,1.20
2009,03,06,01,46,0.00
2009,03,06,01,47,0.00
2009,03,06,01,48,0.20
2009,03,06,01,49,1.10
2009,03,06,01,50,0.70
2009,03,06,01,51,0.20
2009,03,06,01,52,0.40
2009,03,06,01,53,0.00
2009,03,06,01,54,0.00
2009,03,06,01,55,0.60
2009,03,06,01,56,0.00
2009,03,06,01,57,0.30
2009,03,06,01,58,0.30
2009,03,06,01,59,0.20
2009,03,06,02,00,0.00
2009,03,06,02,01,0.20
2009,03,06,02,02,0.90
2009,03,06,02,03,0.00
2009,03,06,02,04,0.00
2009,03,06,02,05,0.00
2009,03,06,02,06,0.00
2009,03,06,02,07,0.00
2009,03,06,02,08,0.00
2009,03,06,02,09,0.00
2009,03,06,02,10,0.00
2009,03,06,02,11,0.00
2009,03,06,02,12,0.00
2009,03,06,02,13,0.00
2009,03,06,02,14,0.00
2009,03,06,02,15,0.30
2009,03,06,02,16,0.00
2009,03,06,02,17,0.00
2009,03,06,02,18,0.80
2009,03,06,02,19,0.00
2009,03,06,02,20,2.70
2009,03,06,02,21,0.30
2009,03,06,02,22,0.30
2009,03,06,02,23,0.20
2009,03,06,02,24,2.10
2009,03,06,02,25,1.20
2009,03,06,02,26,0.20
2009,03,06,02,27,0.00
2009,03,06,02,28,1.60
2009,03,06,02,29,0.30
2009,03,06,02,30,0.00
2009,03,06,02,31,0.00
2009,03,06,02,32,0.70
2009,03,06,02,33,0.00
2009,03,06,02,34,0.30
2009,03,06,02,35,1.20
2009,03,06,02,36,0.10
2009,03,06,02,37,0.70
2009,03,06,02,38,0.30
2009,03,06,02,39,1.00
2009,03,06,02,40,0.00
2009,03,06,02,41,0.10
2009,03,06,02,42,0.40
2009,03,06,02,43,0.00
2009,03,06,02,44,1.00
2009,03,06,02,45,0.60
2009,03,06,02,46,0.10
2009,03,06,02,47,0.20
2009,03,06,02,48,0.00
2009,03,06,02,49,0.30
2009,03,06,02,50,0.00
2009,03,06,02,51,0.10
2009,03,06,02,52,0.00
2009,03,06,02,53,0.50
2009,03,06,02,54,0.80
2009,03,06,02,55,0.10
2009,03,06,02,56,0.10
2009,03,06,02,57,0.00
2009,03,06,02,58,0.10
2009,03,06,02,59,0.00
2009,03,06,03,00,0.60
2009,03,06,03,01,0.00
2009,03,06,03,02,0.30
2009,03,06,03,03,0.10
2009,03,06,03,04,0.00
2009,03,06,03,05,0.00
2009,03,06,03,06,0.00
2009,03,06,03,07,0.00
2009,03,06,03,08,0.00
2009,03,06,03,09,0.00
2009,03,06,03,10,0.00
2009,03,06,03,11,0.90
2009,03,06,03,12,0.30
2009,03,06,03,13,0.00
2009,03,06,03,14,0.00
2009,03,06,03,15,0.00
2009,03,06,03,16,0.00
2009,03,06,03,17,0.00
2009,03,06,03,18,0.00
2009,03,06,03,19,0.10
2009,03,06,03,20,0.00
2009,03,06,03,21,1.50
2009,03,06,03,22,0.40
2009,03,06,03,23,0.10
2009,03,06,03,24,0.50
2009,03,06,03,25,0.00
2009,03,06,03,26,0.30
2009,03,06,03,27,0.00
2009,03,06,03,28,0.00
2009,03,06,03,29,0.00
2009,03,06,03,30,0.00
2009,03,06,03,31,0.00
2009,03,06,03,32,0.60
2009,03,06,03,33,0.00
2009,03,06,03,34,0.60
2009,03,06,03,35,0.90
2009,03,06,03,36,1.40
2009,03,06,03,37,0.70
2009,03,06,03,38,1.10
2009,03,06,03,39,0.30
2009,03,06,03,40,0.80
2009,03,06,03,41,1.60
2009,03,06,03,42,0.20
2009,03,06,03,43,1.10
2009,03,06,03,44,0.10
2009,03,06,03,45,1.20
2009,03,06,03,46,1.10
2009,03,06,03,47,0.30
2009,03,06,03,48,0.30
2009,03,06,03,49,1.90
2009,03,06,03,50,0.60
2009,03,06,03,51,0.00
2009,03,06,03,52,0.00
2009,03,06,03,53,1.90
2009,03,06,03,54,0.20
2009,03,06,03,55,0.00
2009,03,06,03,56,0.00
2009,03,06,03,57,0.40
2009,03,06,03,58,0.20
2009,03,06,03,59,0.00
2009,03,06,04,00,0.00
2009,03,06,04,01,0.00
2009,03,06,04,02,0.00
2009,03,06,04,03,0.00
2009,03,06,04,04,0.00
2009,03,06,04,05,0.00
2009,03,06,04,06,0.30
2009,03,06,04,07,0.00
2009,03,06,04,08,0.00
2009,03,06,04,09,0.00
2009,03,06,04,10,0.00
2009,03,06,04,11,0.00
2009,03,06,04,12,0.00
2009,03,06,04,13,0.00
2009,03,06,04,14,0.00
2009,03,06,04,15,0.00
2009,03,06,04,16,0.40
2009,03,06,04,17,0.00
2009,03,06,04,18,0.00
2009,03,06,04,19,0.00
2009,03,06,04,20,0.00
2009,03,06,04,21,0.00
2009,03,06,04,22,0.00
2009,03,06,04,23,0.00
2009,03,06,04,24,0.10
2009,03,06,04,25,0.60
2009,03,06,04,26,0.00
2009,03,06,04,27,0.00
2009,03,06,04,28,0.00
2009,03,06,04,29,0.10
2009,03,06,04,30,0.70
2009,03,06,04,31,0.30
2009,03,06,04,32,0.10
2009,03,06,04,33,0.00
2009,03,06,04,34,0.00
2009,03,06,04,35,0.00
2009,03,06,04,36,0.20
2009,03,06,04,37,0.00
2009,03,06,04,38,0.00
2009,03,06,04,39,0.10
2009,03,06,04,40,0.10
2009,03,06,04,41,0.40
2009,03,06,04,42,0.00
2009,03,06,04,43,2.20
2009,03,06,04,44,0.40
2009,03,06,04,45,0.00
2009,03,06,04,46,0.00
2009,03,06,04,47,0.30
2009,03,06,04,48,0.60
2009,03,06,04,49,0.30
2009,03,06,04,50,0.10
2009,03,06,04,51,0.10
2009,03,06,04,52,0.30
2009,03,06,04,53,0.30
2009,03,06,04,54,0.30
2009,03,06,04,55,0.00
2009,03,06,04,56,0.10
2009,03,06,04,57,0.60
2009,03,06,04,58,0.00
2009,03,06,04,59,0.00
2009,03,06,05,00,0.00
2009,03,06,05,01,0.00
2009,03,06,05,02,0.00
2009,03,06,05,03,0.00
2009,03,06,05,04,0.10
2009,03,06,05,05,0.10
2009,03,06,05,06,0.20
2009,03,06,05,07,0.00
2009,03,06,05,08,0.00
2009,03,06,05,09,0.10
2009,03,06,05,10,0.00
2009,03,06,05,11,0.00
2009,03,06,05,12,0.00
2009,03,06,05,13,0.00
2009,03,06,05,14,0.20
2009,03,06,05,15,0.60
2009,03,06,05,16,0.10
2009,03,06,05,17,0.00
2009,03,06,05,18,0.00
2009,03,06,05,19,0.30
2009,03,06,05,20,0.10
2009,03,06,05,21,0.10
2009,03,06,05,22,0.30
2009,03,06,05,23,0.90
2009,03,06,05,24,0.80
2009,03,06,05,25,0.00
2009,03,06,05,26,1.10
2009,03,06,05,27,0.90
2009,03,06,05,28,0.70
2009,03,06,05,29,1.60
2009,03,06,05,30,0.80
2009,03,06,05,31,1.70
2009,03,06,05,32,0.80
2009,03,06,05,33,3.20
2009,03,06,05,34,1.90
2009,03,06,05,35,0.30
2009,03,06,05,36,0.00
2009,03,06,05,37,1.10
2009,03,06,05,38,0.10
2009,03,06,05,39,0.20
2009,03,06,05,40,0.30
2009,03,06,05,41,0.30
2009,03,06,05,42,1.20
2009,03,06,05,43,0.10
2009,03,06,05,44,2.30
2009,03,06,05,45,0.20
2009,03,06,05,46,1.80
2009,03,06,05,47,0.20
2009,03,06,05,48,1.40
2009,03,06,05,49,0.20
2009,03,06,05,50,1.00
2009,03,06,05,51,0.90
2009,03,06,05,52,0.90
2009,03,06,05,53,0.30
2009,03,06,05,54,1.00
2009,03,06,05,55,1.00
2009,03,06,05,56,2.70
2009,03,06,05,57,0.90
2009,03,06,05,58,0.60
2009,03,06,05,59,3.10
2009,03,06,06,00,0.50
2009,03,06,06,01,2.30
2009,03,06,06,02,1.90
2009,03,06,06,03,1.00
2009,03,06,06,04,0.50
2009,03,06,06,05,0.20
2009,03,06,06,06,1.50
2009,03,06,06,07,0.20
2009,03,06,06,08,0.60
2009,03,06,06,09,0.20
2009,03,06,06,10,2.30
2009,03,06,06,11,0.80
2009,03,06,06,12,0.00
2009,03,06,06,13,0.80
2009,03,06,06,14,4.10
2009,03,06,06,15,0.80
2009,03,06,06,16,1.50
2009,03,06,06,17,1.00
2009,03,06,06,18,0.30
2009,03,06,06,19,1.50
2009,03,06,06,20,0.00
2009,03,06,06,21,0.50
2009,03,06,06,22,1.10
2009,03,06,06,23,2.70
2009,03,06,06,24,1.20
2009,03,06,06,25,0.00
2009,03,06,06,26,0.40
2009,03,06,06,27,0.90
2009,03,06,06,28,0.80
2009,03,06,06,29,0.50
2009,03,06,06,30,0.70
2009,03,06,06,31,1.50
2009,03,06,06,32,0.20
2009,03,06,06,33,0.10
2009,03,06,06,34,0.30
2009,03,06,06,35,0.20
2009,03,06,06,36,1.10
2009,03,06,06,37,0.80
2009,03,06,06,38,0.70
2009,03,06,06,39,1.40
2009,03,06,06,40,1.20
2009,03,06,06,41,0.30
2009,03,06,06,42,1.50
2009,03,06,06,43,1.90
2009,03,06,06,44,0.70
2009,03,06,06,45,1.40
2009,03,06,06,46,0.20
2009,03,06,06,47,0.20
2009,03,06,06,48,0.30
2009,03,06,06,49,0.30
2009,03,06,06,50,0.00
2009,03,06,06,51,0.10
2009,03,06,06,52,1.10
2009,03,06,06,53,0.00
2009,03,06,06,54,0.00
2009,03,06,06,55,0.10
2009,03,06,06,56,0.00
2009,03,06,06,57,0.60
2009,03,06,06,58,0.00
2009,03,06,06,59,0.00
2009,03,06,07,00,0.50
2009,03,06,07,01,0.60
2009,03,06,07,02,1.50
2009,03,06,07,03,0.30
2009,03,06,07,04,0.60
2009,03,06,07,05,0.10
2009,03,06,07,06,0.00
2009,03,06,07,07,2.30
2009,03,06,07,08,0.80
2009,03,06,07,09,0.50
2009,03,06,07,10,0.30
2009,03,06,07,11,1.00
2009,03,06,07,12,0.40
2009,03,06,07,13,1.00
2009,03,06,07,14,0.50
2009,03,06,07,15,0.50
2009,03,06,07,16,0.90
2009,03,06,07,17,1.00
2009,03,06,07,18,0.90
2009,03,06,07,19,0.00
2009,03,06,07,20,0.80
2009,03,06,07,21,0.40
2009,03,06,07,22,0.00
2009,03,06,07,23,0.30
2009,03,06,07,24,0.30
2009,03,06,07,25,0.00
2009,03,06,07,26,0.10
2009,03,06,07,27,0.00
2009,03,06,07,28,0.00
2009,03,06,07,29,0.10
2009,03,06,07,30,0.10
2009,03,06,07,31,0.00
2009,03,06,07,32,0.00
2009,03,06,07,33,0.00
2009,03,06,07,34,1.20
2009,03,06,07,35,0.60
2009,03,06,07,36,0.30
2009,03,06,07,37,0.00
2009,03,06,07,38,0.60
2009,03,06,07,39,1.00
2009,03,06,07,40,0.30
2009,03,06,07,41,0.20
2009,03,06,07,42,0.10
2009,03,06,07,43,0.10
2009,03,06,07,44,1.70
2009,03,06,07,45,0.80
2009,03,06,07,46,0.00
2009,03,06,07,47,1.90
2009,03,06,07,48,0.10
2009,03,06,07,49,0.00
2009,03,06,07,50,0.60
2009,03,06,07,51,0.10
2009,03,06,07,52,0.70
2009,03,06,07,53,0.30
2009,03,06,07,54,1.40
2009,03,06,07,55,0.00
2009,03,06,07,56,2.20
2009,03,06,07,57,0.30
2009,03,06,07,58,0.00
2009,03,06,07,59,0.00
2009,03,06,08,00,0.00
2009,03,06,08,01,0.00
2009,03,06,08,02,0.20
2009,03,06,08,03,0.00
2009,03,06,08,04,0.00
2009,03,06,08,05,0.00
2009,03,06,08,06,0.30
2009,03,06,08,07,1.20
2009,03,06,08,08,0.90
2009,03,06,08,09,1.20
2009,03,06,08,10,0.00
2009,03,06,08,11,0.00
2009,03,06,08,12,0.10
2009,03,06,08,13,0.20
2009,03,06,08,14,0.00
2009,03,06,08,15,0.00
2009,03,06,08,16,0.00
2009,03,06,08,17,0.00
2009,03,06,08,18,0.00
2009,03,06,08,19,0.00
2009,03,06,08,20,0.80
2009,03,06,08,21,0.20
2009,03,06,08,22,0.80
2009,03,06,08,23,0.10
2009,03,06,08,24,3.40
2009,03,06,08,25,1.90
2009,03,06,08,26,0.10
2009,03,06,08,27,0.00
2009,03,06,08,28,0.80
2009,03,06,08,29,2.10
2009,03,06,08,30,0.10
2009,03,06,08,31,0.50
2009,03,06,08,32,0.40
2009,03,06,08,33,0.00
2009,03,06,08,34,0.00
2009,03,06,08,35,1.00
2009,03,06,08,36,0.80
2009,03,06,08,37,0.00
2009,03,06,08,38,0.30
2009,03,06,08,39,0.00
2009,03,06,08,40,0.00
2009,03,06,08,41,0.20
2009,03,06,08,42,1.00
2009,03,06,08,43,0.00
2009,03,06,08,44,0.30
2009,03,06,08,45,0.20
2009,03,06,08,46,0.40
2009,03,06,08,47,0.00
2009,03,06,08,48,0.10
2009,03,06,08,49,2.40
2009,03,06,08,50,0.10
2009,03,06,08,51,1.60
2009,03,06,08,52,3.20
2009,03,06,08,53,1.70
2009,03,06,08,54,1.70
2009,03,06,08,55,1.00
2009,03,06,08,56,1.20
2009,03,06,08,57,2.80
2009,03,06,08,58,2.50
2009,03,06,08,59,3.00
2009,03,06,09,00,1.70
2009,03,06,09,01,1.10
2009,03,06,09,02,3.10
2009,03,06,09,03,0.70
2009,03,06,09,04,1.20
2009,03,06,09,05,2.50
2009,03,06,09,06,0.30
2009,03,06,09,07,0.50
2009,03,06,09,08,0.00
2009,03,06,09,09,0.10
2009,03,06,09,10,1.00
2009,03,06,09,11,0.20
2009,03,06,09,12,0.10
2009,03,06,09,13,1.40
2009,03,06,09,14,0.40
2009,03,06,09,15,0.70
2009,03,06,09,16,1.40
2009,03,06,09,17,2.40
2009,03,06,09,18,0.00
2009,03,06,09,19,0.00
2009,03,06,09,20,1.60
2009,03,06,09,21,2.40
2009,03,06,09,22,6.00
2009,03,06,09,23,3.70
2009,03,06,09,24,0.10
2009,03,06,09,25,0.30
2009,03,06,09,26,1.00
2009,03,06,09,27,0.30
2009,03,06,09,28,3.90
2009,03,06,09,29,0.00
2009,03,06,09,30,0.20
2009,03,06,09,31,1.70
2009,03,06,09,32,1.10
2009,03,06,09,33,0.80
2009,03,06,09,34,0.70
2009,03,06,09,35,0.70
2009,03,06,09,36,1.20
2009,03,06,09,37,1.00
2009,03,06,09,38,2.40
2009,03,06,09,39,1.10
2009,03,06,09,40,1.60
2009,03,06,09,41,2.50
2009,03,06,09,42,2.70
2009,03,06,09,43,4.80
2009,03,06,09,44,3.90
2009,03,06,09,45,0.50
2009,03,06,09,46,4.10
2009,03,06,09,47,5.40
2009,03,06,09,48,4.70
2009,03,06,09,49,1.50
2009,03,06,09,50,2.50
2009,03,06,09,51,1.80
2009,03,06,09,52,0.30
2009,03,06,09,53,2.10
2009,03,06,09,54,6.20
2009,03,06,09,55,5.10
2009,03,06,09,56,0.90
2009,03,06,09,57,1.00
2009,03,06,09,58,1.10
2009,03,06,09,59,2.50
2009,03,06,10,00,0.50
2009,03,06,10,01,0.70
2009,03,06,10,02,4.40
2009,03,06,10,03,3.90
2009,03,06,10,04,1.80
2009,03,06,10,05,4.00
2009,03,06,10,06,5.70
2009,03,06,10,07,3.40
2009,03,06,10,08,3.60
2009,03,06,10,09,1.40
2009,03,06,10,10,3.90
2009,03,06,10,11,4.50
2009,03,06,10,12,0.80
2009,03,06,10,13,2.70
2009,03,06,10,14,1.10
2009,03,06,10,15,0.30
2009,03,06,10,16,1.10
2009,03,06,10,17,0.20
2009,03,06,10,18,0.90
2009,03,06,10,19,5.70
2009,03,06,10,20,2.70
2009,03,06,10,21,0.20
2009,03,06,10,22,0.40
2009,03,06,10,23,0.00
2009,03,06,10,24,0.00
2009,03,06,10,25,2.40
2009,03,06,10,26,2.20
2009,03,06,10,27,1.70
2009,03,06,10,28,0.00
2009,03,06,10,29,4.10
2009,03,06,10,30,4.40
2009,03,06,10,31,5.60
2009,03,06,10,32,1.90
2009,03,06,10,33,2.00
2009,03,06,10,34,1.80
2009,03,06,10,35,4.70
2009,03,06,10,36,2.50
2009,03,06,10,37,2.80
2009,03,06,10,38,1.50
2009,03,06,10,39,0.00
2009,03,06,10,40,0.80
2009,03,06,10,41,1.40
2009,03,06,10,42,2.30
2009,03,06,10,43,3.40
2009,03,06,10,44,2.60
2009,03,06,10,45,2.60
2009,03,06,10,46,3.10
2009,03,06,10,47,2.10
2009,03,06,10,48,3.10
2009,03,06,10,49,2.90
2009,03,06,10,50,3.80
2009,03,06,10,51,5.30
2009,03,06,10,52,4.00
2009,03,06,10,53,5.80
2009,03,06,10,54,3.50
2009,03,06,10,55,7.00
2009,03,06,10,56,4.80
2009,03,06,10,57,1.90
2009,03,06,10,58,0.70
2009,03,06,10,59,0.30
2009,03,06,11,00,4.80
2009,03,06,11,01,6.50
2009,03,06,11,02,3.70
2009,03,06,11,03,4.10
2009,03,06,11,04,5.50
2009,03,06,11,05,1.80
2009,03,06,11,06,0.70
2009,03,06,11,07,2.80
2009,03,06,11,08,6.40
2009,03,06,11,09,6.90
2009,03,06,11,10,4.10
2009,03,06,11,11,2.80
2009,03,06,11,12,0.90
2009,03,06,11,13,0.20
2009,03,06,11,14,1.00
2009,03,06,11,15,2.00
2009,03,06,11,16,2.50
2009,03,06,11,17,6.00
2009,03,06,11,18,5.10
2009,03,06,11,19,5.10
2009,03,06,11,20,4.40
2009,03,06,11,21,4.20
2009,03,06,11,22,3.30
2009,03,06,11,23,2.30
2009,03,06,11,24,5.30
2009,03,06,11,25,3.80
2009,03,06,11,26,6.40
2009,03,06,11,27,7.30
2009,03,06,11,28,5.00
2009,03,06,11,29,5.10
2009,03,06,11,30,3.60
2009,03,06,11,31,4.20
2009,03,06,11,32,6.80
2009,03,06,11,33,5.00
2009,03,06,11,34,10.00
2009,03,06,11,35,6.60
2009,03,06,11,36,4.90
2009,03,06,11,37,4.70
2009,03,06,11,38,3.60
2009,03,06,11,39,5.80
2009,03,06,11,40,5.40
2009,03,06,11,41,2.60
2009,03,06,11,42,6.60
2009,03,06,11,43,4.20
2009,03,06,11,44,5.60
2009,03,06,11,45,5.00
2009,03,06,11,46,3.30
2009,03,06,11,47,6.20
2009,03,06,11,48,5.50
2009,03,06,11,49,3.60
2009,03,06,11,50,5.20
2009,03,06,11,51,3.10
2009,03,06,11,52,3.00
2009,03,06,11,53,6.20
2009,03,06,11,54,3.90
2009,03,06,11,55,3.60
2009,03,06,11,56,4.70
2009,03,06,11,57,3.50
2009,03,06,11,58,5.80
2009,03,06,11,59,4.70
2009,03,06,12,00,2.70
2009,03,06,12,01,4.00
2009,03,06,12,02,4.50
2009,03,06,12,03,5.80
2009,03,06,12,04,3.60
2009,03,06,12,05,2.40
2009,03,06,12,06,6.90
2009,03,06,12,07,7.60
2009,03,06,12,08,2.60
2009,03,06,12,09,3.90
2009,03,06,12,10,5.60
2009,03,06,12,11,3.80
2009,03,06,12,12,4.90
2009,03,06,12,13,4.10
2009,03,06,12,14,4.30
2009,03,06,12,15,5.70
2009,03,06,12,16,7.90
2009,03,06,12,17,7.70
2009,03,06,12,18,4.10
2009,03,06,12,19,4.50
2009,03,06,12,20,3.50
2009,03,06,12,21,3.90
2009,03,06,12,22,6.90
2009,03,06,12,23,3.80
2009,03,06,12,24,5.20
2009,03,06,12,25,4.80
2009,03,06,12,26,4.00
2009,03,06,12,27,2.60
2009,03,06,12,28,8.10
2009,03,06,12,29,6.60
2009,03,06,12,30,5.80
2009,03,06,12,31,7.50
2009,03,06,12,32,5.40
2009,03,06,12,33,8.40
2009,03,06,12,34,7.70
2009,03,06,12,35,5.70
2009,03,06,12,36,6.00
2009,03,06,12,37,11.20
2009,03,06,12,38,7.50
2009,03,06,12,39,5.60
2009,03,06,12,40,5.10
2009,03,06,12,41,7.00
2009,03,06,12,42,7.70
2009,03,06,12,43,5.50
2009,03,06,12,44,7.10
2009,03,06,12,45,6.40
2009,03,06,12,46,6.40
2009,03,06,12,47,7.70
2009,03,06,12,48,7.30
2009,03,06,12,49,3.10
2009,03,06,12,50,5.30
2009,03,06,12,51,7.80
2009,03,06,12,52,7.10
2009,03,06,12,53,6.40
2009,03,06,12,54,7.10
2009,03,06,12,55,3.60
2009,03,06,12,56,0.90
2009,03,06,12,57,2.60
2009,03,06,12,58,4.30
2009,03,06,12,59,5.20
2009,03,06,13,00,2.50
2009,03,06,13,01,5.50
2009,03,06,13,02,8.00
2009,03,06,13,03,8.40
2009,03,06,13,04,12.50
2009,03,06,13,05,3.90
2009,03,06,13,06,1.30
2009,03,06,13,07,7.00
2009,03,06,13,08,3.80
2009,03,06,13,09,4.10
2009,03,06,13,10,4.80
2009,03,06,13,11,3.20
2009,03,06,13,12,8.10
2009,03,06,13,13,4.60
2009,03,06,13,14,3.90
2009,03,06,13,15,4.30
2009,03,06,13,16,5.10
2009,03,06,13,17,6.20
2009,03,06,13,18,4.10
2009,03,06,13,19,3.70
2009,03,06,13,20,4.50
2009,03,06,13,21,3.70
2009,03,06,13,22,4.30
2009,03,06,13,23,4.10
2009,03,06,13,24,4.20
2009,03,06,13,25,5.30
2009,03,06,13,26,2.50
2009,03,06,13,27,7.50
2009,03,06,13,28,5.80
2009,03,06,13,29,10.30
2009,03,06,13,30,5.90
2009,03,06,13,31,3.00
2009,03,06,13,32,2.50
2009,03,06,13,33,5.20
2009,03,06,13,34,2.90
2009,03,06,13,35,4.40
2009,03,06,13,36,4.90
2009,03,06,13,37,4.50
2009,03,06,13,38,6.70
2009,03,06,13,39,5.30
2009,03,06,13,40,6.90
2009,03,06,13,41,6.40
2009,03,06,13,42,6.50
2009,03,06,13,43,3.90
2009,03,06,13,44,3.10
2009,03,06,13,45,1.80
2009,03,06,13,46,5.80
2009,03,06,13,47,9.60
2009,03,06,13,48,5.80
2009,03,06,13,49,4.90
2009,03,06,13,50,3.60
2009,03,06,13,51,3.10
2009,03,06,13,52,6.90
2009,03,06,13,53,6.10
2009,03,06,13,54,4.70
2009,03,06,13,55,5.30
2009,03,06,13,56,7.20
2009,03,06,13,57,7.20
2009,03,06,13,58,4.70
2009,03,06,13,59,6.60
2009,03,06,14,00,4.70
2009,03,06,14,01,3.60
2009,03,06,14,02,5.20
2009,03,06,14,03,3.20
2009,03,06,14,04,2.20
2009,03,06,14,05,2.40
2009,03,06,14,06,7.90
2009,03,06,14,07,5.30
2009,03,06,14,08,4.50
2009,03,06,14,09,9.30
2009,03,06,14,10,2.70
2009,03,06,14,11,4.20
2009,03,06,14,12,2.60
2009,03,06,14,13,5.90
2009,03,06,14,14,4.60
2009,03,06,14,15,4.10
2009,03,06,14,16,8.30
2009,03,06,14,17,1.80
2009,03,06,14,18,7.60
2009,03,06,14,19,2.70
2009,03,06,14,20,4.80
2009,03,06,14,21,4.10
2009,03,06,14,22,2.60
2009,03,06,14,23,3.20
2009,03,06,14,24,5.30
2009,03,06,14,25,3.70
2009,03,06,14,26,5.40
2009,03,06,14,27,5.80
2009,03,06,14,28,5.70
2009,03,06,14,29,2.90
2009,03,06,14,30,5.00
2009,03,06,14,31,4.90
2009,03,06,14,32,4.10
2009,03,06,14,33,1.20
2009,03,06,14,34,2.50
2009,03,06,14,35,4.40
2009,03,06,14,36,4.10
2009,03,06,14,37,3.90
2009,03,06,14,38,3.10
2009,03,06,14,39,2.00
2009,03,06,14,40,1.70
2009,03,06,14,41,6.20
2009,03,06,14,42,3.20
2009,03,06,14,43,6.40
2009,03,06,14,44,7.60
2009,03,06,14,45,3.00
2009,03,06,14,46,1.90
2009,03,06,14,47,3.40
2009,03,06,14,48,1.00
2009,03,06,14,49,4.10
2009,03,06,14,50,6.40
2009,03,06,14,51,6.40
2009,03,06,14,52,4.10
2009,03,06,14,53,2.90
2009,03,06,14,54,2.60
2009,03,06,14,55,2.20
2009,03,06,14,56,2.30
2009,03,06,14,57,0.90
2009,03,06,14,58,1.30
2009,03,06,14,59,4.10
2009,03,06,15,00,6.30
2009,03,06,15,01,3.50
2009,03,06,15,02,4.60
2009,03,06,15,03,3.10
2009,03,06,15,04,2.80
2009,03,06,15,05,5.10
2009,03,06,15,06,3.10
2009,03,06,15,07,3.30
2009,03,06,15,08,3.50
2009,03,06,15,09,1.80
2009,03,06,15,10,4.70
2009,03,06,15,11,6.20
2009,03,06,15,12,6.60
2009,03,06,15,13,1.50
2009,03,06,15,14,2.40
2009,03,06,15,15,1.60
2009,03,06,15,16,5.80
2009,03,06,15,17,5.20
2009,03,06,15,18,3.00
2009,03,06,15,19,3.30
2009,03,06,15,20,5.00
2009,03,06,15,21,6.30
2009,03,06,15,22,6.20
2009,03,06,15,23,3.60
2009,03,06,15,24,9.70
2009,03,06,15,25,3.60
2009,03,06,15,26,3.60
2009,03,06,15,27,3.40
2009,03,06,15,28,4.70
2009,03,06,15,29,3.60
2009,03,06,15,30,4.20
2009,03,06,15,31,5.40
2009,03,06,15,32,5.20
2009,03,06,15,33,5.50
2009,03,06,15,34,2.70
2009,03,06,15,35,4.00
2009,03,06,15,36,2.80
2009,03,06,15,37,4.50
2009,03,06,15,38,4.00
2009,03,06,15,39,4.30
2009,03,06,15,40,3.60
2009,03,06,15,41,2.20
2009,03,06,15,42,2.50
2009,03,06,15,43,5.70
2009,03,06,15,44,4.10
2009,03,06,15,45,2.30
2009,03,06,15,46,2.00
2009,03,06,15,47,4.40
2009,03,06,15,48,5.60
2009,03,06,15,49,9.10
2009,03,06,15,50,5.50
2009,03,06,15,51,5.30
2009,03,06,15,52,11.00
2009,03,06,15,53,6.80
2009,03,06,15,54,8.70
2009,03,06,15,55,4.10
2009,03,06,15,56,4.20
2009,03,06,15,57,2.70
2009,03,06,15,58,4.90
2009,03,06,15,59,1.80
2009,03,06,16,00,3.60
2009,03,06,16,01,5.80
2009,03,06,16,02,5.20
2009,03,06,16,03,6.70
2009,03,06,16,04,4.30
2009,03,06,16,05,6.50
2009,03,06,16,06,8.20
2009,03,06,16,07,3.40
2009,03,06,16,08,0.60
2009,03,06,16,09,2.70
2009,03,06,16,10,4.40
2009,03,06,16,11,1.10
2009,03,06,16,12,2.30
2009,03,06,16,13,2.00
2009,03,06,16,14,5.30
2009,03,06,16,15,3.20
2009,03,06,16,16,3.60
2009,03,06,16,17,6.20
2009,03,06,16,18,3.50
2009,03,06,16,19,3.50
2009,03,06,16,20,3.40
2009,03,06,16,21,7.40
2009,03,06,16,22,7.00
2009,03,06,16,23,2.70
2009,03,06,16,24,2.30
2009,03,06,16,25,4.70
2009,03,06,16,26,6.60
2009,03,06,16,27,6.30
2009,03,06,16,28,5.90
2009,03,06,16,29,3.00
2009,03,06,16,30,3.50
2009,03,06,16,31,5.70
2009,03,06,16,32,6.10
2009,03,06,16,33,0.90
2009,03,06,16,34,4.70
2009,03,06,16,35,2.50
2009,03,06,16,36,2.80
2009,03,06,16,37,3.80
2009,03,06,16,38,1.10
2009,03,06,16,39,3.40
2009,03,06,16,40,1.80
2009,03,06,16,41,1.20
2009,03,06,16,42,3.80
2009,03,06,16,43,1.00
2009,03,06,16,44,0.30
2009,03,06,16,45,0.00
2009,03,06,16,46,2.30
2009,03,06,16,47,1.50
2009,03,06,16,48,0.30
2009,03,06,16,49,3.40
2009,03,06,16,50,3.10
2009,03,06,16,51,4.30
2009,03,06,16,52,2.50
2009,03,06,16,53,2.50
2009,03,06,16,54,4.20
2009,03,06,16,55,3.70
2009,03,06,16,56,1.60
2009,03,06,16,57,2.10
2009,03,06,16,58,1.50
2009,03,06,16,59,1.00
2009,03,06,17,00,3.00
2009,03,06,17,01,0.60
2009,03,06,17,02,1.90
2009,03,06,17,03,0.80
2009,03,06,17,04,0.40
2009,03,06,17,05,0.10
2009,03,06,17,06,1.90
2009,03,06,17,07,0.30
2009,03,06,17,08,1.90
2009,03,06,17,09,2.20
2009,03,06,17,10,1.00
2009,03,06,17,11,0.20
2009,03,06,17,12,1.10
2009,03,06,17,13,0.90
2009,03,06,17,14,0.00
2009,03,06,17,15,0.00
2009,03,06,17,16,0.10
2009,03,06,17,17,1.20
2009,03,06,17,18,1.70
2009,03,06,17,19,2.00
2009,03,06,17,20,0.90
2009,03,06,17,21,2.10
2009,03,06,17,22,1.30
2009,03,06,17,23,1.30
2009,03,06,17,24,3.10
2009,03,06,17,25,1.20
2009,03,06,17,26,0.30
2009,03,06,17,27,0.50
2009,03,06,17,28,0.30
2009,03,06,17,29,0.20
2009,03,06,17,30,0.20
2009,03,06,17,31,0.60
2009,03,06,17,32,1.40
2009,03,06,17,33,2.50
2009,03,06,17,34,0.40
2009,03,06,17,35,0.10
2009,03,06,17,36,0.00
2009,03,06,17,37,0.00
2009,03,06,17,38,0.00
2009,03,06,17,39,0.00
2009,03,06,17,40,0.00
2009,03,06,17,41,0.00
2009,03,06,17,42,0.00
2009,03,06,17,43,0.00
2009,03,06,17,44,0.00
2009,03,06,17,45,0.00
2009,03,06,17,46,0.20
2009,03,06,17,47,0.20
2009,03,06,17,48,0.00
2009,03,06,17,49,0.00
2009,03,06,17,50,0.00
2009,03,06,17,51,0.00
2009,03,06,17,52,0.00
2009,03,06,17,53,0.00
2009,03,06,17,54,0.00
2009,03,06,17,55,0.00
2009,03,06,17,56,0.00
2009,03,06,17,57,0.00
2009,03,06,17,58,0.00
2009,03,06,17,59,0.00
2009,03,06,18,00,0.00
2009,03,06,18,01,0.30
2009,03,06,18,02,0.00
2009,03,06,18,03,0.00
2009,03,06,18,04,0.00
2009,03,06,18,05,0.00
2009,03,06,18,06,0.00